Weather in Goulburn

Australia     34°45′24″S   149°42′59″E
temp.,
°C
wind,
m/s
gust,
m/s
humid.,
%
clouds,
%
prec.,
mm/h
press.,
hPa
HPBL,
m
11 april, sun
sun1101:00+9w6137247 0.0 1008765
04:00+6w714738 0.1 10081047
07:00+5w915796 0.0 1011897
10:00+7w9116243 0.0 10121090
13:00+11w9114656 0.0 10101904
16:00+10w912514 0.0 10111344
19:00+7w713611 0.0 1015824
22:00+4w512740 0.0 1017376
12 april, mon
mon1201:00+2w49870 0.0 1018190
04:00+1wnw37920 0.0 1019116
07:00+1wnw25860 0.0 1021113
10:00+10ssw46475 0.0 10201090
13:00+14ssw35405 0.0 10181669
16:00+15s24415 0.0 10171702
19:00+7sw11693 0.0 102110
22:00+4n11870 0.0 102410
13 april, tue
tue1301:00+3nne22910 0.0 102313
04:00+3nne11910 0.0 102310
07:00+4n11875 0.0 102412
10:00+13nw34475 0.0 1021829
13:00+17wnw56365 0.0 10181356
16:00+16wnw574387 0.0 10171169
19:00+9wnw385867 0.0 1019134
22:00+7wnw38656 0.0 1020140
14 april, wed
wed1401:00+8nw3136110 0.0 1018254
04:00+10wnw6155027 0.0 1016472
07:00+11wnw817481 0.0 1016577
10:00+16wnw915415 0.0 1015992
13:00+19wnw915335 0.0 10131574
16:00+18wnw8153797 0.0 10121691
19:00+14w71535100 0.0 1015984
22:00+13w613450 0.0 1016684
15 april, thu
thu1501:00+9wnw6147880 0.0 1016431
04:00+9wnw615812 0.0 1015490
07:00+7w4129335 0.0 1018368
10:00+14w711545 0.0 10161034
13:00+16w812451 0.0 10141313
16:00+15w711500 0.0 10141291
19:00+11w713570 0.0 1018569
22:00+7w49741 0.0 1021200